Preston, Minnesota, United States (55965)
Lat: 43.67N, Lon: 92.08W
Wx Zone: MNZ095
Local Info
Past Weather Observations for Today

NOTE: This archive is for the closest National Weather Service station to Preston. Information may differ from the station used for current weather conditions.

Click here for Long-term Archive

Time Weather Temperature Dewpoint Humidity Pressure Winds Precip Visibility
06:31
Clear
63°F / 17°C 63°F / 17°C 100% 30.24 in
(1024 mb)
N 3.5 mph
(N 6 kph)
- 10SM
06:11
Clear
61°F / 16°C 61°F / 16°C 100% 30.24 in
(1024 mb)
Calm - 10SM
05:51
Clear
59°F / 15°C 59°F / 15°C 100% 30.24 in
(1024 mb)
N 3.5 mph
(N 6 kph)
- 7SM
05:31
Clear
59°F / 15°C 59°F / 15°C 100% 30.21 in
(1023 mb)
N 3.5 mph
(N 6 kph)
- 10SM
05:11
Clear
59°F / 15°C 59°F / 15°C 100% 30.21 in
(1023 mb)
NE 4.6 mph
(NE 7 kph)
- 7SM
04:51
Partly Cloudy
59°F / 15°C 59°F / 15°C 100% 30.21 in
(1023 mb)
NNE 3.5 mph
(NNE 6 kph)
- 7SM
04:31
Partly Cloudy
59°F / 15°C 59°F / 15°C 100% 30.21 in
(1023 mb)
Calm - 10SM
04:11
Clear
61°F / 16°C 61°F / 16°C 100% 30.21 in
(1023 mb)
NNW 4.6 mph
(NNW 7 kph)
- 10SM
03:51
Partly Cloudy
61°F / 16°C 61°F / 16°C 100% 30.21 in
(1023 mb)
N 3.5 mph
(N 6 kph)
- 10SM
03:31
Mostly Cloudy
61°F / 16°C 61°F / 16°C 100% 30.21 in
(1023 mb)
Calm - 10SM
03:11
Partly Cloudy
61°F / 16°C 61°F / 16°C 100% 30.21 in
(1023 mb)
Calm - 10SM
02:51
Clear
61°F / 16°C 61°F / 16°C 100% 30.18 in
(1022 mb)
Calm - 10SM
02:31
Clear
61°F / 16°C 61°F / 16°C 100% 30.18 in
(1022 mb)
NNE 4.6 mph
(NNE 7 kph)
- 10SM
02:11
Clear
63°F / 17°C 63°F / 17°C 100% 30.18 in
(1022 mb)
NNE 4.6 mph
(NNE 7 kph)
- 10SM
01:51
Clear
63°F / 17°C 63°F / 17°C 100% 30.18 in
(1022 mb)
NNE 6.9 mph
(NNE 11 kph)
- 10SM
01:31
Clear
63°F / 17°C 61°F / 16°C 94% 30.18 in
(1022 mb)
N 5.8 mph
(N 9 kph)
- 10SM
01:11
Clear
63°F / 17°C 61°F / 16°C 94% 30.18 in
(1022 mb)
N 5.8 mph
(N 9 kph)
- 10SM
00:51
Clear
63°F / 17°C 63°F / 17°C 100% 30.18 in
(1022 mb)
N 4.6 mph
(N 7 kph)
- 10SM
00:31
Clear
64°F / 18°C 63°F / 17°C 94% 30.15 in
(1021 mb)
N 5.8 mph
(N 9 kph)
- 10SM
00:11
Clear
64°F / 18°C 63°F / 17°C 94% 30.15 in
(1021 mb)
N 5.8 mph
(N 9 kph)
- 10SM
Time Weather Temperature Dewpoint Humidity Pressure Winds Precip Visibility


Weather for websites

WeatherForYou.com, LLC is not responsible for any damages or problems caused by this service. Current weather conditions are obtained from the closest station including government and personal stations which may have varying degrees of accuracy. Weather forecasts are derived from the NOAA NDFD. Like all things, this site belongs to Jesus Christ... He just trusts me to maintain it. If you have any questions or comments email webmaster@weatherforyou.com

Copyright © 2014, WeatherForYou.com LLC. All rights reserved.